Mytilini, Greece

11:54 PM EEST on October 23, 2017 (GMT +0300)
Odysseas Elytis

Weather History for LGMT - October, 2017

Change the Weather History Date:

Thursday, October 12, 2017

  Actual Average Record
Temperature  
Mean Temperature 68 °F -  
Max Temperature 75 °F 68 °F 82 °F (1998)
Min Temperature 60 °F 56 °F 57 °F (2010)
Cooling Degree Days 2    
Growing Degree Days 18 (Base 50)    
Moisture  
Dew Point 46 °F    
Average Humidity 46    
Maximum Humidity 72    
Minimum Humidity 21    
Precipitation  
Precipitation 0.00 in 0.08 in - ()
Sea Level Pressure  
Sea Level Pressure 30.18 in    
Wind  
Wind Speed 8 mph ()    
Max Wind Speed 15 mph    
Max Gust Speed -    
Visibility 6.2 miles    
Events      
Averages and records for this station are not official NWS values.
T = Trace of Precipitation, MM = Missing Value Source: Averaged Metar Reports

Daily Weather History Graph

Daily Weather History Graph

Search for Another Location

Airport or City:

Trip Planner

Search our weather history database for the weather conditions in past years. The results will help you decide how hot, cold, wet, or windy it might be!

Date:

Astronomy

Oct. 12, 2017 Rise Set
Actual Time 7:20 AM EEST 6:39 PM EEST
Civil Twilight 6:53 AM EEST 7:06 PM EEST
Nautical Twilight 6:22 AM EEST 7:37 PM EEST
Astronomical Twilight 5:51 AM EEST 8:08 PM EEST
Moon No Moon Rise 2:12 PM EEST (10/12)
Length of Visible Light 12h 12m
Length of Day
11h 19m
Waning Gibbous, 52% of the Moon is Illuminated
Oct 12
Waning Gibbous
Oct 12
Last Quarter
Oct 19
New
Oct 28
First Quarter
Nov 4
Full

Hourly Weather History & Observations

Time (EEST) Temp. Dew Point Humidity Pressure Visibility Wind Dir Wind Speed Gust Speed Precip Events Conditions
4:50 AM 60.8 °F 50.0 °F 68% 30.18 in 6.2 mi WNW 8.1 mph - N/A   Partly Cloudy
5:20 AM 60.8 °F 50.0 °F 68% 30.18 in 6.2 mi WNW 8.1 mph - N/A   Partly Cloudy
5:50 AM 60.8 °F 50.0 °F 68% 30.18 in - WNW 6.9 mph - N/A   Clear
6:00 AM 61 °F 51 °F 60% 30.19 in 6 mi WNW 6.9 mph - -  
6:20 AM 60.8 °F 50.0 °F 68% 30.18 in - WNW 6.9 mph - N/A   Clear
6:50 AM 60.8 °F 51.8 °F 72% 30.18 in - WNW 8.1 mph - N/A   Clear
7:20 AM 60.8 °F 51.8 °F 72% 30.18 in - WNW 8.1 mph - N/A   Clear
7:50 AM 62.6 °F 51.8 °F 68% 30.18 in - WNW 8.1 mph - N/A   Clear
8:20 AM 64.4 °F 51.8 °F 64% 30.18 in - NW 10.4 mph - N/A   Clear
8:50 AM 64.4 °F 51.8 °F 64% 30.21 in - NW 10.4 mph - N/A   Clear
9:00 AM 65 °F 52 °F 54% 30.22 in 6 mi NW 10.4 mph - -  
9:20 AM 66.2 °F 51.8 °F 60% 30.21 in - NW 10.4 mph - N/A   Clear
9:50 AM 68.0 °F 48.2 °F 49% 30.21 in - NNW 13.8 mph - N/A   Clear
10:20 AM 68.0 °F 48.2 °F 49% 30.21 in - NNW 13.8 mph - N/A   Clear
10:50 AM 69.8 °F 48.2 °F 46% 30.21 in - NNW 12.7 mph - N/A   Clear
11:20 AM 69.8 °F 48.2 °F 46% 30.21 in - NNW 12.7 mph - N/A   Clear
12:00 PM 71 °F 48 °F 33% 30.22 in 7 mi NNW 13.8 mph - -  
12:20 PM 71.6 °F 48.2 °F 43% 30.21 in - NNW 13.8 mph - N/A   Clear
12:50 PM 71.6 °F 50.0 °F 46% 30.21 in - NNW 15.0 mph - N/A   Clear
1:20 PM 71.6 °F 50.0 °F 46% 30.21 in - NNW 15.0 mph - N/A   Clear
1:50 PM 73.4 °F 48.2 °F 41% 30.18 in - NNW 12.7 mph - N/A   Clear
2:20 PM 73.4 °F 46.4 °F 38% 30.18 in - NW 10.4 mph - N/A   Clear
2:50 PM 75.2 °F 44.6 °F 34% 30.18 in - NNW 12.7 mph - N/A   Clear
3:00 PM 75 °F 44 °F 23% 30.19 in 6 mi NNW 12.7 mph - -  
3:20 PM 75.2 °F 42.8 °F 31% 30.18 in - NW 10.4 mph - N/A   Clear
3:50 PM 75.2 °F 42.8 °F 31% 30.18 in - NNW 12.7 mph - N/A   Clear
4:20 PM 73.4 °F 44.6 °F 36% 30.15 in - NNW 12.7 mph - N/A   Clear
4:50 PM 73.4 °F 42.8 °F 33% 30.15 in - NW 10.4 mph - N/A   Clear
5:20 PM 73.4 °F 42.8 °F 33% 30.15 in - NW 10.4 mph - N/A   Clear
5:50 PM 73.4 °F 41.0 °F 31% 30.15 in - NW 8.1 mph - N/A   Clear
6:00 PM 73 °F 41 °F 21% 30.17 in 6 mi NW 8.1 mph - -  
6:20 PM 71.6 °F 39.2 °F 31% 30.15 in - NW 6.9 mph - N/A   Clear
6:50 PM 71.6 °F 39.2 °F 31% 30.15 in - WNW 4.6 mph - N/A   Clear
7:20 PM 69.8 °F 37.4 °F 31% 30.15 in - WNW 4.6 mph - N/A   Clear
7:50 PM 68.0 °F 37.4 °F 33% 30.15 in - WNW 5.8 mph - N/A   Clear
8:20 PM 66.2 °F 39.2 °F 37% 30.18 in - NW 5.8 mph - N/A   Clear
8:50 PM 66.2 °F 41.0 °F 40% 30.18 in - West 4.6 mph - N/A   Clear
9:00 PM 67 °F 42 °F 28% 30.19 in 6 mi West 4.6 mph - -  
9:20 PM 66.2 °F 42.8 °F 43% 30.18 in - Variable 2.3 mph - N/A   Clear
9:50 PM 64.4 °F 44.6 °F 49% 30.18 in - Calm Calm - N/A   Clear
10:20 PM 62.6 °F 46.4 °F 55% 30.18 in - Variable 2.3 mph - N/A   Clear